Lamoni, IA

7:05 PM CDT on August 16, 2017 (GMT -0500)
Lamoni Municipal

Weather History for KLWD - August, 2012

Change the Weather History Date:

Sunday, August 12, 2012

  Actual Average Record
Temperature  
Mean Temperature 73 °F 74 °F  
Max Temperature 83 °F 84 °F 98 °F (1975)
Min Temperature 62 °F 65 °F 46 °F (2004)
Degree Days  
Heating Degree Days 0 0  
Month to date heating degree days 0 0  
Since 1 June heating degree days 10 21  
Since 1 July heating degree days 0 2  
Cooling Degree Days 8 10  
Month to date cooling degree days 122 120  
Year to date cooling degree days 1058 683  
Since 1 June cooling degree days 901 629  
Growing Degree Days 22 (Base 50)    
Moisture  
Dew Point 59 °F    
Average Humidity 68    
Maximum Humidity 93    
Minimum Humidity 42    
Precipitation  
Precipitation 0.18 in 0.15 in 0.97 in (1985)
Month to date precipitation 1.83 1.60  
Year to date precipitation 18.86  
Sea Level Pressure  
Sea Level Pressure 29.90 in    
Wind  
Wind Speed 6 mph (ESE)    
Max Wind Speed 20 mph    
Max Gust Speed 29 mph    
Visibility 10 miles    
Events Rain , Thunderstorm    
T = Trace of Precipitation, MM = Missing Value Source: NWS Daily Summary

Daily Weather History Graph

Daily Weather History Graph

Search for Another Location

Airport or City:

Trip Planner

Search our weather history database for the weather conditions in past years. The results will help you decide how hot, cold, wet, or windy it might be!

Date:

Astronomy

Aug. 12, 2012 Rise Set
Actual Time 6:23 AM CDT 8:16 PM CDT
Civil Twilight 5:54 AM CDT 8:46 PM CDT
Nautical Twilight 5:18 AM CDT 9:22 PM CDT
Astronomical Twilight 4:39 AM CDT 10:00 PM CDT
Moon 1:36 AM CDT (8/12) 4:42 PM CDT (8/12)
Length of Visible Light 14h 52m
Length of Day
13h 53m
Waning Crescent, 24% of the Moon is Illuminated
Aug 12
Waning Crescent
Aug 17
New
Aug 24
First Quarter
Aug 31
Full
Sep 8
Last Quarter

Hourly Weather History & Observations

Time (CDT) Temp. Heat Index Dew Point Humidity Pressure Visibility Wind Dir Wind Speed Gust Speed Precip Events Conditions
12:53 AM 69.1 °F - 52.0 °F 54% 29.99 in 10.0 mi ENE 4.6 mph - N/A   Mostly Cloudy
1:53 AM 66.0 °F - 54.0 °F 65% 29.99 in 8.0 mi Calm Calm - 0.00 in Rain Rain
2:53 AM 64.0 °F - 55.9 °F 75% 29.98 in 10.0 mi East 3.5 mph - 0.04 in   Overcast
3:53 AM 63.0 °F - 55.9 °F 78% 29.96 in 10.0 mi East 3.5 mph - 0.03 in   Mostly Cloudy
4:53 AM 63.0 °F - 55.9 °F 78% 29.96 in 10.0 mi East 4.6 mph - N/A   Overcast
5:53 AM 63.0 °F - 55.9 °F 78% 29.96 in 10.0 mi East 4.6 mph - N/A   Overcast
6:53 AM 63.0 °F - 55.9 °F 78% 29.95 in 10.0 mi East 4.6 mph - N/A   Overcast
7:53 AM 63.0 °F - 55.0 °F 75% 29.96 in 10.0 mi SE 3.5 mph - N/A   Overcast
8:53 AM 64.0 °F - 55.9 °F 75% 29.96 in 10.0 mi SE 3.5 mph - N/A   Overcast
9:53 AM 63.0 °F - 55.9 °F 78% 29.95 in 10.0 mi East 6.9 mph - 0.01 in Rain Light Rain
10:53 AM 68.0 °F - 57.9 °F 70% 29.94 in 10.0 mi SSE 10.4 mph - 0.00 in   Overcast
11:53 AM 72.0 °F - 57.9 °F 61% 29.92 in 10.0 mi SE 12.7 mph - N/A   Mostly Cloudy
12:53 PM 75.0 °F - 55.9 °F 51% 29.88 in 10.0 mi SE 10.4 mph 20.7 mph N/A   Mostly Cloudy
1:53 PM 80.1 °F 80.2 °F 55.9 °F 43% 29.85 in 10.0 mi SSE 17.3 mph 28.8 mph N/A   Partly Cloudy
2:53 PM 80.1 °F 80.6 °F 57.9 °F 47% 29.84 in 10.0 mi SSE 11.5 mph 20.7 mph N/A   Scattered Clouds
3:53 PM 82.0 °F 82.4 °F 60.1 °F 47% 29.82 in 10.0 mi South 11.5 mph 19.6 mph N/A   Clear
4:53 PM 75.0 °F - 64.9 °F 71% 29.82 in 10.0 mi SE 5.8 mph - 0.02 in Thunderstorm Overcast
5:07 PM 75.2 °F - 64.4 °F 69% 29.83 in 10.0 mi ESE 3.5 mph - N/A   Mostly Cloudy
5:53 PM 73.9 °F - 66.9 °F 79% 29.82 in 10.0 mi SE 3.5 mph - 0.08 in   Mostly Cloudy
6:53 PM 75.0 °F - 66.9 °F 76% 29.82 in 10.0 mi Calm Calm - 0.01 in   Overcast
7:53 PM 73.0 °F - 66.0 °F 79% 29.83 in 10.0 mi East 3.5 mph - N/A   Overcast
8:53 PM 69.1 °F - 64.0 °F 84% 29.86 in 10.0 mi North 4.6 mph - N/A   Partly Cloudy
9:53 PM 66.9 °F - 63.0 °F 87% 29.87 in 10.0 mi East 6.9 mph - 0.02 in   Clear
10:53 PM 64.9 °F - 62.1 °F 90% 29.88 in 10.0 mi NE 6.9 mph - 0.01 in   Partly Cloudy
11:11 PM 64.4 °F - 62.6 °F 94% 29.90 in 10.0 mi NNE 5.8 mph - N/A   Mostly Cloudy
11:53 PM 64.9 °F - 62.1 °F 90% 29.88 in 10.0 mi NE 8.1 mph - 0.01 in   Overcast